www.pogodaiklimat.ru

Погода и климат >> Архив погоды >> Индия >> Nagpur


ПОГОДА в Nagpur

  • Прогноз погоды в Nagpur
  • Монитор погоды в Nagpur
  • Климат города

АРХИВ ПОГОДЫ в Nagpur

Время (UTC), дата Ветер
(напр.,м/с)
 
Видим.   Явления Облачность Т
(С)
Тd
(С)
f
(%)
Тe
(С)
Тes
(С)
Комфортность P
(гПа)
Po
(гПа)
Тmin
(С)
Tmax
(С)
R
(мм)
S
(см)
00 19.03 штиль 0 2000 м мгла ясно +20.0 +10.4 54 +21 +21 комфорт 1009.7 1010.0
03 19.03 С 2 4000 м мгла ясно +28.0 +11.3 35 +29 +35 жарко 1012.1 1012.0 +19.0
06 19.03 С 2 4000 м мгла ясно +33.4 +11.8 27 +33 +54 опасность
солнечного
удара
1010.7 1011.0
09 19.03 З 4 2000 м мгла 4/4 600 м
[Cu Sc]
+36.5 +10.5 21 +36 +41 очень
жарко
1007.1 1007.0
12 19.03 СЗ 5 4000 м мгла 6/5 600 м
[Cu Sc Ac trans]
+35.0 +14.3 29 +36 +36 очень
жарко
1006.3 1006.0 +37.5
15 19.03 СЗ 2 2000 м мгла 3/1 600 м
[Sc Ac trans]
+28.0 +11.7 36 +29 +29 жарко 1009.2 1009.0
18 19.03 В 3 2000 м мгла 1/0
[Ac trans]
+26.2 +12.0 41 +28 +28 жарко 1010.8 1011.0
21 19.03 СВ 3 2000 м мгла 1/0
[Ac trans]
+23.4 +14.3 57 +27 +27 душно 1011.0 1011.0
00 20.03 С 2 2000 м мгла ясно +20.8 +13.9 65 +24 +24 комфорт 1011.4 1011.0
03 20.03 СВ 2 4000 м мгла ясно +26.0 +12.6 43 +28 +34 жарко 1013.9 1014.0 +19.0
06 20.03 В 3 4000 м ясно +31.0 +13.4 34 +32 +48 жарко 1012.6 1013.0
09 20.03 В 3 4000 м ясно +33.4 +8.6 22 +32 +44 жарко 1008.6 1009.0
12 20.03 В 1 4000 м мгла ясно +33.4 +9.1 22 +32 +33 жарко 1008.3 1008.0 +35.2
15 20.03 В 1 4000 м мгла ясно +25.6 +9.7 37 +26 +26 жарко 1011.0 1011.0
18 20.03 С 1 4000 м мгла ясно +22.2 +9.2 43 +24 +24 комфорт 1012.3 1012.0
21 20.03 С 1 4000 м мгла ясно +21.6 +8.3 42 +23 +23 комфорт 1011.8 1012.0
00 21.03 С 1 4000 м мгла ясно +17.6 +8.3 54 +19 +19 1013.4 1013.0
03 21.03 СВ 1 4000 м мгла ясно +26.6 +8.6 32 +27 +34 жарко 1015.0 1015.0 +16.5
06 21.03 В 3 4000 м ясно +33.6 +9.5 23 +33 +48 жарко 1014.3 1014.0
09 21.03 В 3 4000 м ясно +35.8 +9.5 20 +34 +47 очень
жарко
1010.4 1010.0
12 21.03 В 1 4000 м ясно +34.2 +7.1 19 +32 +33 жарко 1009.5 1010.0 +36.3
15 21.03 штиль 0 4000 м мгла ясно +26.1 +9.7 36 +27 +27 жарко 1011.4 1011.0
18 21.03 штиль 0 4000 м мгла ясно +22.0 +9.9 46 +24 +24 комфорт 1013.1 1013.0
21 21.03 С 1 2000 м мгла ясно +22.5 +9.8 44 +24 +24 комфорт 1011.8 1012.0
00 22.03 штиль 0 2000 м мгла ясно +17.8 +9.0 56 +18 +18 1012.3 1012.0
03 22.03 С 2 4000 м мгла ясно +27.2 +10.6 35 +28 +35 жарко 1013.7 1014.0 +16.9
06 22.03 ЮВ 2 4000 м мгла ясно +34.2 +10.4 23 +33 +52 опасность
солнечного
удара
1012.6 1013.0
09 22.03 В 3 4000 м мгла ясно +37.8 +10.9 20 +37 +49 очень
жарко
1008.4 1008.0
12 22.03 штиль 0 4000 м мгла ясно +36.4 +12.2 23 +36 +37 очень
жарко
1007.0 1007.0 +38.4
15 22.03 штиль 0 2000 м мгла ясно +27.6 +10.7 35 +28 +28 жарко 1009.7 1010.0
18 22.03 штиль 0 2000 м мгла ясно +25.4 +10.4 39 +26 +26 жарко 1010.8 1011.0
21 22.03 штиль 0 2000 м мгла ясно +21.4 +10.4 49 +23 +23 комфорт 1009.5 1010.0
00 23.03 штиль 0 2000 м мгла ясно +19.4 +10.6 57 +20 +20 1009.8 1010.0
03 23.03 штиль 0 2000 м мгла ясно +29.0 +11.3 33 +30 +38 жарко 1011.7 1012.0 +18.9
06 23.03 ЮВ 2 4000 м мгла ясно +36.6 +9.9 20 +35 +56 опасность
солнечного
удара
1010.4 1010.0
09 23.03 В 2 2000 м мгла ясно +39.6 +8.5 15 +37 +52 опасность
солнечного
удара
1006.6 1007.0
12 23.03 В 1 2000 м мгла ясно +37.8 +9.8 18 +36 +37 очень
жарко
1005.8 1006.0 +40.6
15 23.03 ЮВ 2 2000 м мгла ясно +30.6 +11.4 31 +31 +31 жарко 1008.4 1008.0
18 23.03 С 1 2000 м мгла ясно +26.0 +11.7 41 +27 +27 жарко 1009.6 1010.0
21 23.03 штиль 0 2000 м мгла ясно +23.4 +12.6 51 +26 +26 жарко 1008.6 1009.0
00 24.03 С 1 2000 м мгла ясно +21.8 +11.9 53 +24 +24 комфорт 1009.0 1009.0
03 24.03 Ю 1 2000 м мгла ясно +30.8 +13.1 34 +32 +39 жарко 1010.4 1010.0 +21.5
06 24.03 В 2 2000 м мгла ясно +37.8 +12.0 21 +37 +58 опасность
солнечного
удара
1009.2 1009.0
09 24.03 З 4 4000 м мгла 3/3 750 м
[Cu med, cong]
+41.1 +12.2 18 1005.2 1005.0
12 24.03 Ю 1 4000 м мгла 3/1 600 м
[Sc Ac trans]
+38.4 +12.5 21 +38 +39 очень
жарко
1004.6 1005.0 +41.5
15 24.03 штиль 0 2000 м мгла ясно +29.4 +11.9 34 +30 +30 жарко 1007.9 1008.0
18 24.03 штиль 0 2000 м мгла ясно +26.6 +12.5 42 +28 +28 жарко 1009.4 1009.0
21 24.03 штиль 0 2000 м мгла ясно +24.0 +11.2 45 +25 +25 комфорт 1008.6 1009.0
00 25.03 Ю 1 2000 м мгла ясно +22.2 +10.6 48 +24 +24 комфорт 1008.8 1009.0
03 25.03 С 1 2000 м мгла ясно +30.8 +11.1 30 +31 +39 жарко 1010.7 1011.0 +20.7
06 25.03 С 3 4000 м мгла ясно +38.4 +8.6 16 +36 +54 опасность
солнечного
удара
1009.5 1010.0
09 25.03 СЗ 4 4000 м мгла 1/1 750 м
[Cu hum]
+41.0 +8.3 14 +39 +47 очень
жарко
1005.3 1005.0
12 25.03 СЗ 4 4000 м мгла 1/1 600 м
[Sc]
+39.4 +8.7 16 +38 +38 очень
жарко
1004.4 1004.0 +42.0
15 25.03 С 2 2000 м мгла ясно +34.4 +8.7 21 +33 +33 жарко 1007.7 1008.0
18 25.03 штиль 0 2000 м мгла ясно +27.0 +10.8 36 +28 +28 жарко 1010.1 1010.0

 

Местоположение метеостанции Nagpur (Maharashtra, Индия): широта 21.10 долгота 79.05 высота над уровнем моря 310 м.

В архиве по умолчанию представлена погода в Nagpur за последнюю неделю. Архивные данные за месяц целиком и за предыдущие месяцы, начиная с января 2011 года, Вы можете получить, выбрав интересующий диапазон дат из раскрывающегося списка и нажав кнопку "Ввод!".

Внимание! Время в таблицах - всемирное. Для получения местного времени необходимо прибавить поправку, которая в Nagpur равна 5.5 ч.

Смотрите также архив погоды в соседних городах и на ближайших метеорологических станциях:

Погода в Wardha (Maharashtra, Индия) (68 км)
Погода в Bramhapuri (Maharashtra, Индия) (100 км)
Погода в Chhindwara (Madhya Pradesh, Индия) (111 км)
Погода в Seoni (Madhya Pradesh, Индия) (121 км)
Погода в Yeotmal (Maharashtra, Индия) (122 км)
Погода в Gondia (Maharashtra, Индия) (126 км)
Погода в Chandrapur (Maharashtra, Индия) (128 км)
Погода в Amraoti (Maharashtra, Индия) (133 км)
Погода в Betul (Madhya Pradesh, Индия) (144 км)
Погода в Pachmarhi (Madhya Pradesh, Индия) (165 км)

Пояснения к столбцам:

Ветер - указаны скорость ветра в м/с - средняя за 10 мин, порывы в срок и между сроками (в фигурных скобках) и направление, откуда дует ветер: С - северный, СВ - северо-восточный, В - восточный, ЮВ - юго-восточный, Ю - южный, ЮЗ - юго-западный, З - западный, СЗ - северо-западный.
Видимость - горизонтальная дальность видимости в метрах или километрах. При видимости от 1 до 10 км при отсутствии осадков обычно наблюдается дымка, при ухудшении видимости до 1 км и менее - туман. В сухую погоду видимость может ухудшаться дымом, пылью или мглою.
Явления - указаны атмосферные явления, наблюдавшиеся в срок или в последний час перед сроком; фигурными скобками обозначены явления, наблюдавшиеся между сроками (за 1-3 часа до срока); квадратными скобками обозначены град или гололедные отложения с указанием их диаметра в мм.
Облачность - указаны через наклонную черту общая и нижняя облачность в баллах и высота нижней границы облаков в метрах; квадратными скобками обозначены формы облаков: Ci - перистые, Cs - перисто-слоистые, Cc - перисто-кучевые, Ac - высококучевые, As - высокослоистые, Sc - слоисто-кучевые, Ns - слоисто-дождевые, Cu - кучевые, Cb - кучево-дождевые. Подробнее классификацию облаков см. в Атласе облаков (PDF).
T - Температура воздуха - температура, измеренная на высоте 2 м над землей.
Td - Температура точки росы - температура, при понижении до которой содержащийся в воздухе водяной пар достигнет насыщения.
f - Относительная влажность воздуха - влажноcть воздуха, измеренная на высоте 2 м над землей.
Te - Эффективная температура - температура, которую ощущает одетый по сезону человек в тени. Характеристика душности погоды. При расчете учитывается влияние влажности воздуха и скорости ветра на теплоощущения человека.
Tes - Эффективная температура на солнце - температура, которую ощущает человек, с поправкой на солнечный нагрев. Характеристика знойности погоды. Зависит от высоты солнца над горизонтом, облачности и скорости ветра. Ночью, в пасмурную погоду, а также при ветре 12 м/с и более поправка равна нулю.
P - Атмосферное давление - приведенное к уровню моря атмосферное давление.
Po - Атмосферное давление - измеренное на уровне метеостанции атмосферное давление.
Tmin - Минимальная температура - минимум температуры воздуха на высоте 2 м над землей.
Tmax - Максимальная температура - максимум температуры воздуха на высоте 2 м над землей.
R - Количество осадков - Количество выпавших осадков, мм. При наведении курсора мыши на число - период времени, за который выпало указанное количество осадков.
S - Снежный покров - Высота снежного покрова, см. При наведении курсора мыши на число - состояние снежного покрова и степень покрытия местности в баллах.